Location: Stoke Bliss
(52.2667°N, 2.5167°W)
Time: 07:48:26
(UTC+00:00)

Envisat - Pass Details

Date: 09 December 2021
Orbit: 764 x 766 km, 98.2° (Epoch: 17 January)

Event Time Altitude Azimuth Distance (km) Brightness Sun altitude
Rises 05:43:12 0° 12° (NNE) 3,247 6.3 -20.7°
Reaches altitude 10° 05:45:32 10° 11° (N) 2,316 5.5 -20.4°
Maximum altitude 05:50:36 68° 289° (WNW) 827 2.9 -19.6°
Drops below altitude 10° 05:55:37 10° 207° (SSW) 2,298 5.3 -18.9°
Sets 05:57:55 0° 205° (SSW) 3,220 6.1 -18.5°
